Brownwood, TX

1:18 AM CDT on May 26, 2017 (GMT -0500)
Brownwood Regional

Weather History for KBWD - September, 2012

Change the Weather History Date:

Friday, September 14, 2012

  Actual Average (KABI) Record (KABI)
Temperature  
Mean Temperature 62 °F -  
Max Temperature 66 °F 86 °F 101 °F (1965)
Min Temperature 59 °F 64 °F 47 °F (1945)
Degree Days  
Heating Degree Days 2    
Growing Degree Days 12 (Base 50)    
Moisture  
Dew Point 58 °F    
Average Humidity 83    
Maximum Humidity 94    
Minimum Humidity 73    
Precipitation  
Precipitation 0.00 in - - ()
Sea Level Pressure  
Sea Level Pressure 30.25 in    
Wind  
Wind Speed 11 mph (NNW)    
Max Wind Speed 14 mph    
Max Gust Speed 20 mph    
Visibility 10 miles    
Events Rain    
Averages and records for this station are not official NWS values.
T = Trace of Precipitation, MM = Missing Value Source: NWS Daily Summary

Daily Weather History Graph

Daily Weather History Graph

Search for Another Location

Airport or City:

Trip Planner

Search our weather history database for the weather conditions in past years. The results will help you decide how hot, cold, wet, or windy it might be!

Date:

Astronomy

Sep. 14, 2012 Rise Set
Actual Time 7:19 AM CDT 7:42 PM CDT
Civil Twilight 6:55 AM CDT 8:06 PM CDT
Nautical Twilight 6:26 AM CDT 8:35 PM CDT
Astronomical Twilight 5:57 AM CDT 9:04 PM CDT
Moon 5:48 AM CDT (9/14) 6:39 PM CDT (9/14)
Length of Visible Light 13h 11m
Length of Day
12h 22m
Waning Crescent, 2% of the Moon is Illuminated
Sep 14
Waning Crescent
Sep 15
New
Sep 22
First Quarter
Sep 29
Full
Oct 8
Last Quarter

Hourly Weather History & Observations

Time (CDT) Temp. Dew Point Humidity Pressure Visibility Wind Dir Wind Speed Gust Speed Precip Events Conditions
12:15 AM 62.6 °F 60.8 °F 94% 30.23 in 10.0 mi NNW 11.5 mph - N/A   Overcast
12:35 AM 62.6 °F 60.8 °F 94% 30.22 in 10.0 mi NNW 12.7 mph - N/A   Overcast
12:55 AM 62.6 °F 60.8 °F 94% 30.22 in 10.0 mi NNW 13.8 mph 19.6 mph N/A   Overcast
1:15 AM 62.6 °F 59.0 °F 88% 30.22 in 10.0 mi NNW 13.8 mph - N/A   Overcast
1:35 AM 62.6 °F 59.0 °F 88% 30.23 in 10.0 mi NNW 11.5 mph - N/A   Overcast
1:55 AM 62.6 °F 59.0 °F 88% 30.24 in 10.0 mi NW 12.7 mph - N/A   Overcast
2:15 AM 62.6 °F 59.0 °F 88% 30.24 in 10.0 mi North 11.5 mph - N/A   Overcast
2:35 AM 62.6 °F 59.0 °F 88% 30.24 in 10.0 mi North 12.7 mph - N/A   Overcast
2:55 AM 62.6 °F 59.0 °F 88% 30.24 in 10.0 mi North 8.1 mph - N/A   Overcast
3:15 AM 60.8 °F 59.0 °F 94% 30.24 in 10.0 mi North 12.7 mph - N/A   Overcast
3:35 AM 60.8 °F 57.2 °F 88% 30.24 in 10.0 mi NNW 12.7 mph - N/A   Overcast
3:55 AM 60.8 °F 57.2 °F 88% 30.23 in 10.0 mi NNW 12.7 mph - N/A   Overcast
4:15 AM 60.8 °F 57.2 °F 88% 30.23 in 8.0 mi North 12.7 mph - N/A   Overcast
4:35 AM 60.8 °F 57.2 °F 88% 30.23 in 5.0 mi NNW 11.5 mph - N/A Rain Light Rain
4:55 AM 59.0 °F 57.2 °F 94% 30.23 in 10.0 mi NNW 13.8 mph - N/A   Overcast
5:15 AM 60.8 °F 57.2 °F 88% 30.24 in 10.0 mi North 12.7 mph - N/A   Overcast
5:35 AM 59.0 °F 57.2 °F 94% 30.24 in 10.0 mi North 9.2 mph - N/A   Overcast
5:55 AM 59.0 °F 57.2 °F 94% 30.24 in 10.0 mi NNW 9.2 mph - N/A   Overcast
6:15 AM 59.0 °F 57.2 °F 94% 30.24 in 10.0 mi North 11.5 mph - N/A   Overcast
6:35 AM 59.0 °F 57.2 °F 94% 30.24 in 10.0 mi NNW 11.5 mph - N/A   Overcast
6:55 AM 59.0 °F 57.2 °F 94% 30.25 in 10.0 mi NNW 9.2 mph - N/A   Overcast
7:15 AM 59.0 °F 57.2 °F 94% 30.25 in 10.0 mi North 9.2 mph - N/A   Overcast
7:35 AM 59.0 °F 57.2 °F 94% 30.25 in 10.0 mi North 11.5 mph - N/A   Overcast
7:55 AM 60.8 °F 57.2 °F 88% 30.26 in 10.0 mi North 9.2 mph - N/A   Overcast
8:15 AM 60.8 °F 57.2 °F 88% 30.26 in 10.0 mi North 9.2 mph - N/A   Overcast
8:35 AM 60.8 °F 57.2 °F 88% 30.27 in 10.0 mi NNW 10.4 mph - N/A   Overcast
8:55 AM 59.0 °F 57.2 °F 94% 30.27 in 10.0 mi NNW 10.4 mph - N/A   Overcast
9:15 AM 60.8 °F 57.2 °F 88% 30.27 in 10.0 mi NNW 10.4 mph - N/A   Overcast
9:35 AM 60.8 °F 57.2 °F 88% 30.27 in 10.0 mi NNW 11.5 mph - N/A   Overcast
9:55 AM 60.8 °F 57.2 °F 88% 30.28 in 10.0 mi NNW 9.2 mph - N/A   Overcast
10:15 AM 62.6 °F 57.2 °F 82% 30.28 in 10.0 mi NW 11.5 mph - N/A   Overcast
10:35 AM 62.6 °F 57.2 °F 82% 30.28 in 10.0 mi NNW 13.8 mph - N/A   Overcast
10:55 AM 62.6 °F 57.2 °F 82% 30.28 in 10.0 mi North 10.4 mph - N/A   Overcast
11:15 AM 62.6 °F 57.2 °F 82% 30.29 in 10.0 mi NNW 13.8 mph - N/A   Overcast
11:35 AM 62.6 °F 57.2 °F 82% 30.29 in 10.0 mi NNW 12.7 mph 16.1 mph N/A   Overcast
11:55 AM 62.6 °F 57.2 °F 82% 30.29 in 10.0 mi North 9.2 mph - N/A   Overcast
12:35 PM 64.4 °F 57.2 °F 77% 30.28 in 10.0 mi North 9.2 mph - N/A   Overcast
12:55 PM 64.4 °F 57.2 °F 77% 30.28 in 10.0 mi North 10.4 mph - N/A   Overcast
1:15 PM 64.4 °F 57.2 °F 77% 30.28 in 10.0 mi NW 6.9 mph - N/A   Overcast
1:35 PM 64.4 °F 57.2 °F 77% 30.27 in 10.0 mi NNW 8.1 mph - N/A   Overcast
1:55 PM 64.4 °F 57.2 °F 77% 30.27 in 10.0 mi NNW 8.1 mph - N/A   Overcast
2:15 PM 64.4 °F 57.2 °F 77% 30.27 in 10.0 mi NNW 9.2 mph - N/A   Overcast
2:35 PM 64.4 °F 57.2 °F 77% 30.26 in 10.0 mi North 9.2 mph - N/A   Overcast
2:55 PM 66.2 °F 57.2 °F 73% 30.25 in 10.0 mi NNW 10.4 mph - N/A   Overcast
3:15 PM 64.4 °F 57.2 °F 77% 30.25 in 10.0 mi NW 9.2 mph - N/A   Overcast
3:35 PM 64.4 °F 57.2 °F 77% 30.25 in 10.0 mi North 10.4 mph - N/A   Overcast
3:55 PM 64.4 °F 57.2 °F 77% 30.24 in 10.0 mi NNW 6.9 mph - N/A   Overcast
4:15 PM 64.4 °F 57.2 °F 77% 30.24 in 10.0 mi NW 9.2 mph - N/A   Overcast
4:35 PM 66.2 °F 57.2 °F 73% 30.24 in 10.0 mi NNW 9.2 mph - N/A   Overcast
4:55 PM 66.2 °F 57.2 °F 73% 30.24 in 10.0 mi North 8.1 mph - N/A   Overcast
5:15 PM 66.2 °F 57.2 °F 73% 30.23 in 10.0 mi NW 10.4 mph - N/A   Overcast
5:35 PM 66.2 °F 57.2 °F 73% 30.23 in 10.0 mi NNW 8.1 mph - N/A   Overcast
5:55 PM 66.2 °F 57.2 °F 73% 30.23 in 10.0 mi NNW 10.4 mph - N/A   Overcast
6:15 PM 66.2 °F 57.2 °F 73% 30.23 in 10.0 mi North 10.4 mph - N/A   Overcast
6:35 PM 66.2 °F 57.2 °F 73% 30.23 in 10.0 mi NNW 10.4 mph - N/A   Overcast
6:55 PM 64.4 °F 57.2 °F 77% 30.23 in 10.0 mi North 10.4 mph - N/A   Overcast
7:15 PM 64.4 °F 57.2 °F 77% 30.23 in 10.0 mi North 11.5 mph - N/A   Overcast
7:35 PM 64.4 °F 57.2 °F 77% 30.24 in 10.0 mi North 13.8 mph - N/A   Overcast
7:55 PM 64.4 °F 57.2 °F 77% 30.24 in 10.0 mi North 9.2 mph - N/A   Overcast
8:15 PM 64.4 °F 57.2 °F 77% 30.25 in 10.0 mi NNW 9.2 mph - N/A   Overcast
8:35 PM 64.4 °F 57.2 °F 77% 30.25 in 10.0 mi NNW 9.2 mph - N/A   Overcast
8:55 PM 64.4 °F 57.2 °F 77% 30.25 in 10.0 mi North 10.4 mph - N/A   Overcast
9:15 PM 64.4 °F 57.2 °F 77% 30.26 in 10.0 mi North 8.1 mph - N/A   Overcast
9:35 PM 64.4 °F 57.2 °F 77% 30.26 in 10.0 mi North 9.2 mph - N/A   Overcast
9:55 PM 62.6 °F 57.2 °F 82% 30.26 in 10.0 mi North 8.1 mph - N/A   Overcast
10:15 PM 62.6 °F 57.2 °F 82% 30.27 in 10.0 mi NNW 9.2 mph - N/A   Overcast
10:35 PM 62.6 °F 57.2 °F 82% 30.27 in 10.0 mi North 5.8 mph - N/A   Overcast
10:55 PM 62.6 °F 57.2 °F 82% 30.27 in 10.0 mi North 9.2 mph - N/A   Overcast
11:15 PM 62.6 °F 57.2 °F 82% 30.27 in 10.0 mi North 8.1 mph - N/A   Overcast
11:35 PM 62.6 °F 57.2 °F 82% 30.27 in 10.0 mi NNW 6.9 mph - N/A   Overcast
11:55 PM 62.6 °F 57.2 °F 82% 30.28 in 10.0 mi NNW 5.8 mph - N/A   Overcast